Wind_Speed
3 2 1 2 2 3 4 4 5 5 5 6 6 6 6 7 7 7 8 8 9 9 9 10 10 10 10 10 10 9 8 8 8 8 8 7 6 5 4 4 3 3 4
2 1 1 1 2 3 4 4 5 5 6 6 6 6 6 7 7 8 8 8 9 9 10 10 10 10 10 11 11 10 10 9 9 9 9 8 7 6 6 5 4 4 4
2 1 1 2 2 3 4 4 5 5 6 6 6 7 7 7 7 8 9 9 9 10 11 11 11 11 11 11 11 11 10 10 10 10 10 9 8 8 7 6 5 4 5
1 1 1 2 2 3 4 4 5 6 6 6 6 7 7 7 7 8 9 10 10 11 11 11 12 11 11 11 11 11 11 11 11 11 10 10 9 9 8 7 6 6 6
1 0 1 1 2 3 4 5 5 6 6 6 7 7 7 7 8 8 9 10 11 11 11 11 11 11 12 12 12 11 11 11 11 11 11 10 10 10 9 8 8 7 7
1 1 1 1 1 3 4 5 5 5 6 6 7 7 8 8 8 9 10 11 11 12 12 12 12 12 12 12 12 12 12 11 12 12 12 12 11 11 10 10 9 8 8
1 0 1 0 2 3 4 5 5 5 6 6 7 8 9 9 9 10 11 12 12 13 13 13 13 13 13 12 12 12 11 12 12 12 13 12 12 12 11 11 10 9 9
0 0 1 1 3 4 4 5 5 5 6 7 8 8 8 9 10 11 12 12 13 13 13 13 13 13 13 12 12 12 11 12 12 13 13 13 13 13 12 12 11 10 10
1 1 1 2 3 4 4 5 5 5 6 7 8 9 9 10 10 11 12 12 13 13 13 13 13 13 13 12 12 12 12 12 13 13 14 14 14 13 13 13 12 11 11
1 1 2 3 4 4 4 5 5 6 7 8 8 9 10 11 11 11 12 12 13 13 13 13 13 13 13 13 13 13 12 13 13 13 14 14 15 14 14 13 13 12 12
2 2 3 4 4 4 4 5 6 7 7 8 9 9 10 11 11 12 12 13 13 13 13 13 13 13 13 13 13 13 13 13 13 13 14 14 14 15 15 14 14 14 13
2 2 3 3 4 5 5 5 6 7 7 8 9 10 10 11 12 12 13 13 13 13 13 14 13 13 12 13 13 13 13 13 14 14 14 14 15 15 15 15 14 14 14
3 3 3 4 4 5 5 6 6 7 8 8 9 10 11 11 12 12 13 13 13 13 14 14 13 13 13 13 13 13 13 13 14 14 14 14 14 15 15 16 15 15 14
3 3 4 4 5 5 5 6 7 7 8 9 10 10 11 12 12 13 13 13 14 14 14 14 13 13 13 13 13 13 13 13 14 14 14 15 15 15 15 16 16 15 15
3 3 3 4 4 5 6 6 7 8 9 9 10 11 12 12 13 13 14 14 15 15 15 14 13 13 13 13 13 13 13 13 14 14 15 15 15 16 16 15 16 17 16
3 3 3 3 3 4 5 6 6 8 9 10 11 12 12 13 13 14 14 15 15 16 16 15 14 14 13 13 13 13 12 12 13 14 15 15 15 16 17 16 17 17 17
3 3 3 2 3 4 5 6 7 8 9 10 11 11 12 13 14 14 15 15 16 16 16 16 15 15 14 13 13 12 12 12 12 13 14 14 15 16 17 17 17 18 17
4 3 3 2 2 3 5 6 7 8 9 10 10 11 12 13 14 15 15 16 16 17 17 17 16 15 14 13 13 12 12 11 11 12 13 14 15 16 17 18 18 18 19
4 3 2 1 2 3 5 6 7 8 9 10 11 12 13 13 14 15 15 16 16 17 17 17 17 16 14 14 13 12 12 11 10 10 12 13 15 16 17 18 19 19 20
4 3 2 2 2 4 5 6 7 8 9 10 11 12 12 13 14 14 15 16 17 17 18 18 17 16 15 14 13 12 12 11 10 10 11 12 14 15 17 18 19 20 21
4 4 2 2 3 4 5 6 7 8 9 10 11 12 13 13 14 15 16 17 17 18 18 18 17 17 16 15 14 13 12 11 10 9 10 11 13 15 16 18 19 20 21
5 4 3 2 3 4 5 6 7 8 9 11 12 13 14 14 15 16 17 17 18 18 18 18 17 17 17 16 15 14 13 11 10 10 9 10 11 14 16 17 19 20 20
5 4 3 3 3 4 5 6 7 8 10 11 12 14 14 15 16 17 17 18 18 18 19 18 18 17 17 16 15 14 13 13 11 10 10 10 10 12 14 16 18 20 21
6 4 4 3 4 4 5 6 7 9 10 12 13 14 15 16 17 17 18 18 18 19 19 19 19 18 18 17 15 14 13 13 12 11 10 9 9 11 13 15 17 20 21
6 5 4 4 4 5 6 7 8 9 11 12 13 15 16 17 18 18 19 19 19 20 20 20 20 19 18 17 16 14 13 13 12 11 11 10 9 10 12 14 16 19 21
6 5 4 4 5 6 6 7 8 10 12 13 14 15 17 18 19 19 20 20 20 21 21 21 20 19 18 17 16 15 14 13 12 11 11 10 9 9 11 13 15 17 20
Wind_Direction
100 75 40 24 26 16 11 359 357 349 343 341 339 336 332 329 327 325 321 316 311 308 306 305 301 297 293 292 291 287 287 286 280 271 267 261 259 261 261 258 252 240 234
85 53 27 38 30 12 0 357 353 352 342 336 337 337 337 334 330 328 328 325 319 314 310 308 303 298 295 292 290 286 282 280 275 267 261 255 254 254 254 251 249 238 231
92 65 59 48 14 358 355 357 353 347 341 337 338 338 337 334 329 326 327 326 322 316 312 308 305 300 297 294 290 285 282 276 270 266 259 251 247 251 249 246 246 242 235
113 79 11 18 1 5 2 358 353 349 345 343 342 341 337 333 329 328 325 323 320 317 313 309 305 301 298 294 291 285 279 275 268 263 260 252 247 246 246 244 242 241 237
116 75 5 360 9 3 353 350 350 348 346 346 344 342 335 332 330 327 325 322 319 316 312 309 305 301 298 296 291 285 279 272 265 260 257 254 249 247 246 245 241 238 236
125 106 40 20 5 0 352 348 348 347 345 344 342 339 334 330 330 329 328 323 319 316 310 305 302 300 298 297 293 286 279 271 263 258 254 253 250 247 246 245 241 239 239
126 85 3 354 350 352 349 347 350 349 346 343 337 335 333 329 330 329 326 323 319 314 309 304 301 299 296 296 294 287 280 272 265 257 252 252 249 247 246 244 240 239 239
216 339 323 330 345 349 346 343 344 341 341 338 336 336 335 332 328 327 327 324 321 317 312 305 301 298 297 295 293 287 280 273 266 257 252 250 250 248 248 246 239 237 237
262 310 327 330 334 338 339 338 335 335 337 337 335 333 331 328 327 326 326 325 323 320 314 308 302 298 297 295 291 287 280 274 268 260 254 250 249 246 247 244 238 236 235
242 298 318 324 325 331 334 332 334 336 336 336 335 333 330 328 328 327 326 325 323 319 315 310 305 300 297 293 290 285 280 274 270 263 256 250 247 244 244 243 237 233 234
250 290 320 326 330 328 331 331 333 336 336 334 333 333 332 332 331 329 328 326 324 322 319 315 310 304 298 294 291 287 280 272 267 263 257 250 246 243 240 238 236 233 231
258 284 305 313 322 325 328 330 332 334 335 334 334 335 334 333 332 330 329 328 327 325 322 318 314 308 302 297 292 287 282 273 265 261 256 250 247 243 238 234 236 233 229
268 285 293 302 316 321 325 327 329 331 334 335 336 336 336 335 335 333 332 331 330 328 325 321 317 312 307 301 295 289 284 275 266 261 255 249 245 243 238 234 233 231 228
272 294 296 302 314 322 323 325 327 330 334 337 338 337 337 337 337 337 337 335 333 331 328 325 321 316 310 305 299 293 286 278 268 262 256 248 243 240 238 234 231 229 225
255 278 289 302 315 323 325 328 331 334 336 339 339 338 336 337 338 339 339 338 337 336 333 330 325 321 315 309 303 297 288 279 270 262 255 249 243 240 237 233 229 227 226
245 262 266 287 303 320 330 334 339 340 340 339 338 337 337 338 339 339 340 341 342 341 338 334 328 324 320 315 308 302 295 285 273 264 254 248 243 239 235 233 228 226 224
233 240 252 273 305 324 334 337 339 340 339 339 340 341 343 343 343 343 343 343 344 344 342 339 334 330 325 320 313 307 300 290 276 265 255 248 242 237 235 232 229 225 222
229 234 244 276 325 339 338 338 338 338 339 340 342 342 344 345 346 346 347 346 345 344 342 341 338 334 330 325 319 312 307 296 280 265 255 250 242 236 234 232 229 227 223
218 222 230 269 316 331 335 341 343 341 340 340 341 341 343 345 345 345 346 345 344 343 343 342 341 337 332 329 325 319 314 306 288 269 258 251 245 237 234 231 229 228 225
213 215 223 269 305 325 336 342 344 345 345 344 344 344 343 344 345 344 344 343 343 343 343 343 342 339 336 332 328 323 318 314 300 279 265 255 247 240 235 232 230 228 224
220 219 232 273 306 328 341 347 347 347 349 350 350 349 348 347 347 345 343 343 342 343 344 344 342 341 339 336 332 327 322 317 309 293 275 260 249 240 235 232 229 228 225
220 222 242 281 310 326 338 344 345 346 349 351 351 351 350 349 346 344 343 342 341 342 342 343 343 342 340 336 333 330 326 320 312 303 288 270 253 242 236 232 229 227 225
220 228 252 282 307 324 334 340 343 345 348 350 349 348 348 347 346 344 343 343 343 344 344 343 342 342 341 338 335 331 328 323 316 308 296 278 257 244 238 233 230 228 226
224 238 261 283 305 319 326 332 339 343 346 347 346 346 347 347 346 345 345 345 345 344 344 344 342 341 339 337 335 332 328 324 319 312 301 283 263 250 243 237 234 230 228
228 241 257 276 297 307 315 325 334 339 343 344 344 345 345 346 345 345 345 345 344 344 343 343 342 340 339 337 334 331 327 324 319 314 306 291 271 256 248 242 237 232 229
230 242 260 277 294 306 316 325 332 335 338 340 341 341 342 343 343 343 343 343 343 342 341 340 339 338 336 335 333 330 327 324 319 313 308 297 280 262 251 245 240 234 230
Height
5881 5881 5881 5881 5881 5881 5881 5880 5880 5879 5879 5879 5878 5877 5877 5876 5876 5875 5875 5874 5874 5874 5873 5873 5873 5873 5873 5874 5874 5874 5874 5875 5875 5876 5877 5878 5878 5879 5880 5880 5881 5882 5882
5881 5881 5881 5881 5881 5881 5881 5880 5880 5879 5879 5878 5877 5877 5876 5876 5875 5875 5874 5874 5873 5873 5872 5872 5872 5871 5871 5872 5872 5872 5872 5873 5874 5874 5875 5876 5877 5878 5879 5879 5880 5881 5882
5881 5881 5881 5881 5881 5881 5881 5880 5880 5879 5878 5878 5877 5876 5876 5875 5875 5874 5873 5873 5872 5871 5871 5870 5870 5870 5870 5870 5870 5870 5871 5871 5872 5873 5873 5874 5875 5876 5877 5878 5879 5880 5881
5881 5882 5882 5881 5881 5881 5881 5880 5880 5879 5878 5877 5877 5876 5875 5874 5874 5873 5872 5872 5871 5870 5869 5869 5868 5868 5868 5868 5868 5868 5869 5869 5870 5871 5872 5872 5873 5875 5876 5877 5878 5879 5879
5882 5882 5882 5882 5882 5881 5881 5880 5879 5879 5878 5877 5876 5875 5875 5874 5873 5872 5872 5871 5870 5869 5868 5867 5866 5866 5866 5866 5866 5866 5866 5867 5867 5868 5869 5870 5871 5873 5874 5875 5876 5877 5878
5882 5882 5882 5882 5882 5881 5881 5880 5879 5879 5878 5877 5876 5875 5874 5874 5873 5872 5870 5870 5868 5867 5866 5865 5865 5864 5864 5863 5863 5863 5864 5864 5865 5866 5867 5868 5869 5871 5872 5873 5874 5876 5876
5882 5882 5882 5882 5881 5881 5880 5880 5879 5878 5878 5877 5876 5875 5874 5873 5872 5871 5870 5868 5867 5866 5865 5864 5863 5862 5861 5861 5861 5861 5861 5862 5862 5863 5864 5866 5867 5868 5870 5871 5872 5874 5875
5882 5882 5882 5882 5881 5881 5880 5880 5879 5878 5878 5877 5876 5874 5873 5872 5871 5870 5868 5867 5866 5864 5863 5862 5861 5860 5859 5859 5859 5859 5859 5859 5859 5860 5862 5863 5864 5866 5867 5869 5870 5872 5873
5882 5882 5882 5882 5881 5881 5880 5880 5879 5878 5877 5876 5875 5874 5873 5872 5870 5869 5867 5866 5864 5862 5861 5859 5858 5857 5857 5856 5856 5856 5856 5856 5857 5857 5859 5860 5861 5863 5865 5866 5868 5869 5870
5882 5882 5882 5882 5881 5881 5880 5879 5879 5878 5877 5876 5875 5873 5872 5871 5869 5867 5866 5864 5862 5861 5859 5857 5856 5855 5854 5854 5854 5854 5854 5854 5854 5855 5856 5857 5858 5860 5862 5864 5865 5867 5868
5881 5882 5881 5881 5881 5880 5880 5879 5878 5878 5876 5875 5874 5873 5871 5870 5868 5866 5865 5863 5861 5859 5857 5855 5854 5853 5852 5851 5851 5851 5851 5851 5851 5852 5852 5854 5855 5857 5859 5861 5862 5864 5866
5881 5881 5881 5881 5880 5880 5879 5879 5878 5877 5876 5875 5873 5872 5871 5869 5867 5865 5863 5861 5859 5857 5855 5854 5852 5850 5849 5848 5848 5848 5848 5848 5848 5849 5849 5851 5852 5854 5856 5857 5859 5861 5863
5880 5880 5880 5880 5880 5879 5879 5878 5878 5877 5875 5874 5873 5871 5870 5868 5866 5864 5862 5860 5858 5856 5854 5852 5850 5848 5847 5846 5845 5845 5844 5844 5845 5845 5846 5847 5849 5850 5852 5854 5856 5858 5861
5880 5880 5880 5880 5879 5879 5879 5878 5877 5876 5875 5874 5872 5871 5869 5867 5865 5863 5861 5859 5856 5854 5852 5850 5848 5846 5845 5843 5842 5842 5841 5841 5841 5842 5843 5844 5845 5847 5849 5851 5853 5855 5858
5879 5879 5879 5879 5879 5879 5878 5878 5877 5876 5874 5873 5872 5870 5868 5866 5864 5862 5860 5857 5855 5852 5850 5848 5846 5844 5842 5841 5840 5839 5838 5838 5838 5838 5839 5841 5842 5844 5846 5848 5850 5852 5855
5879 5879 5879 5879 5879 5878 5878 5877 5876 5875 5874 5873 5871 5869 5868 5866 5863 5861 5859 5856 5854 5851 5848 5846 5844 5842 5840 5838 5837 5836 5835 5834 5834 5835 5836 5837 5839 5841 5843 5845 5847 5849 5852
5878 5878 5878 5878 5878 5878 5878 5877 5876 5874 5873 5872 5870 5869 5867 5865 5862 5860 5858 5855 5853 5850 5847 5844 5842 5840 5838 5836 5834 5833 5832 5831 5831 5831 5832 5834 5835 5837 5839 5842 5844 5846 5849
5878 5878 5878 5878 5878 5877 5877 5876 5875 5874 5873 5871 5870 5868 5866 5864 5862 5859 5857 5854 5852 5849 5846 5843 5840 5838 5836 5834 5832 5830 5829 5828 5828 5828 5829 5830 5832 5834 5836 5838 5841 5843 5846
5877 5877 5877 5877 5877 5877 5876 5875 5875 5873 5872 5870 5869 5867 5865 5863 5861 5858 5856 5853 5851 5848 5845 5842 5839 5836 5834 5832 5830 5828 5827 5826 5825 5825 5826 5827 5828 5830 5833 5835 5837 5840 5843
5876 5877 5877 5877 5877 5876 5876 5875 5874 5873 5871 5870 5868 5866 5864 5862 5860 5858 5855 5852 5850 5847 5844 5840 5837 5834 5832 5830 5828 5826 5825 5824 5823 5823 5823 5824 5825 5826 5829 5831 5834 5836 5839
5876 5876 5876 5876 5876 5876 5875 5874 5873 5872 5871 5869 5867 5865 5863 5861 5859 5856 5854 5851 5848 5845 5842 5839 5836 5833 5831 5828 5827 5825 5823 5822 5821 5820 5820 5821 5822 5823 5825 5827 5830 5833 5835
5875 5875 5876 5876 5876 5875 5874 5874 5873 5872 5870 5868 5866 5864 5862 5860 5858 5855 5853 5850 5847 5844 5841 5838 5835 5832 5830 5827 5825 5823 5822 5821 5819 5819 5818 5818 5819 5820 5822 5824 5826 5829 5832
5874 5875 5875 5875 5875 5874 5874 5873 5872 5871 5869 5867 5866 5864 5861 5859 5857 5854 5851 5848 5845 5842 5839 5836 5834 5831 5828 5826 5823 5822 5820 5819 5818 5817 5816 5815 5816 5817 5818 5820 5823 5825 5828
5873 5874 5874 5874 5874 5873 5873 5872 5871 5870 5868 5866 5865 5863 5860 5858 5855 5853 5850 5847 5844 5841 5838 5835 5832 5829 5826 5824 5822 5820 5818 5817 5816 5815 5814 5813 5813 5814 5815 5817 5819 5822 5824
5872 5873 5873 5873 5873 5873 5872 5871 5870 5869 5867 5865 5864 5862 5859 5856 5854 5851 5848 5845 5842 5839 5836 5833 5830 5827 5824 5822 5820 5818 5816 5815 5814 5813 5812 5811 5811 5812 5812 5814 5816 5818 5821
5871 5871 5872 5872 5872 5871 5871 5870 5869 5868 5866 5864 5862 5860 5858 5855 5852 5849 5846 5843 5840 5837 5834 5831 5828 5825 5822 5820 5818 5816 5814 5813 5812 5811 5810 5809 5809 5809 5810 5811 5812 5815 5817